GW0552 Weather Reports


Display with metric or nautical units.
time (UTC)temp
F
wind
direction
speed
MPH
gust
MPH
rain 1hr
in
rain 24hr
in
rain mn
in
humidity
%
barometer
mb
20260904030715 76 61 0.0 0.0 0.00 0.00 0.00 99 1012.3
20260904030209 76 66 0.0 0.0 0.00 0.00 0.00 99 1012.3
20260904025706 76 64 0.0 0.0 0.00 0.00 0.00 99 1012.5
20260904025201 76 68 0.0 0.0 0.00 0.00 0.00 99 1012.2
20260904024656 76 65 0.0 0.0 0.00 0.00 0.00 99 1012.3
20260904024152 77 64 0.0 0.0 0.00 0.00 0.00 99 1012.1
20260904023648 77 64 0.0 0.0 0.00 0.00 0.00 99 1012.4
20260904023144 77 63 0.0 0.0 0.00 0.00 0.00 98 1012.5
20260904022643 77 65 0.0 0.0 0.00 0.00 0.00 99 1012.4
20260904022140 77 68 0.0 0.0 0.00 0.00 0.00 98 1012.4
20260904021636 77 69 0.0 0.0 0.00 0.00 0.00 98 1012.5
20260904021130 77 64 0.0 0.0 0.00 0.00 0.00 98 1012.6
20260904020627 77 61 0.0 0.0 0.00 0.00 0.00 98 1012.7
20260904020121 77 65 0.0 0.0 0.00 0.00 0.00 98 1012.7
20260904015615 77 67 0.0 0.0 0.00 0.00 0.00 97 1012.6
20260904015114 78 67 0.0 0.0 0.00 0.00 0.00 97 1012.5
20260904014614 78 66 0.0 0.0 0.00 0.00 0.00 97 1012.5
20260904014109 78 69 0.0 0.0 0.00 0.00 0.00 97 1012.3
20260904013606 78 67 0.0 0.0 0.00 0.00 0.00 97 1012.5
20260904013102 78 67 0.0 0.0 0.00 0.00 0.00 96 1012.4
20260904012602 78 62 0.0 0.0 0.00 0.00 0.00 96 1012.3
20260904012056 78 61 0.0 0.0 0.00 0.00 0.00 96 1012.2
20260904011555 78 60 0.0 0.0 0.00 0.00 0.00 96 1012.3
20260904011051 79 66 0.0 0.0 0.00 0.00 0.00 96 1012.4
20260904010546 79 77 0.0 0.0 0.00 0.00 0.00 96 1011.9
20260904010043 79 67 0.0 0.0 0.00 0.00 0.00 95 1012.0
20260904005543 79 78 0.0 0.0 0.00 0.00 0.00 95 1012.1
20260904005038 80 73 0.0 0.0 0.00 0.00 0.00 94 1012.2
20260904004534 80 73 0.0 0.0 0.00 0.00 0.00 93 1012.1
20260904004028 80 73 0.0 0.0 0.00 0.00 0.00 93 1011.8
20260904003525 80 73 0.0 0.0 0.00 0.00 0.00 92 1012.0
20260904003020 80 73 0.0 0.0 0.00 0.00 0.00 92 1011.7
20260904002516 81 73 0.0 0.0 0.00 0.00 0.00 91 1011.7
20260904002015 81 73 0.0 0.0 0.00 0.00 0.00 91 1011.7
20260904001511 81 73 1.0 1.0 0.00 0.00 0.00 90 1011.6
20260904001010 81 73 1.0 1.0 0.00 0.00 0.00 90 1011.6
20260904000509 82 73 1.0 1.0 0.00 0.00 0.00 89 1011.6
20260904000006 82 73 1.0 1.0 0.00 0.00 0.00 88 1011.4
20260903235500 82 73 0.0 0.0 0.00 0.00 0.00 87 1011.7
20260903234955 83 73 0.0 0.0 0.00 0.00 0.00 86 1011.4
20260903234451 83 73 0.0 0.0 0.00 0.00 0.00 84 1011.6
20260903233947 83 72 0.0 0.0 0.00 0.00 0.00 84 1011.5
20260903233443 84 72 0.0 0.0 0.00 0.00 0.00 82 1011.4
20260903232937 84 72 0.0 0.0 0.00 0.00 0.00 82 1011.6
20260903232433 85 72 0.0 0.0 0.00 0.00 0.00 81 1011.3
20260903231932 85 72 0.0 0.0 0.00 0.00 0.00 80 1011.1
20260903231428 85 72 0.0 0.0 0.00 0.00 0.00 79 1011.3
20260903230922 86 72 0.0 0.0 0.00 0.00 0.00 78 1011.2
20260903230418 87 73 0.0 0.0 0.00 0.00 0.00 77 1011.2
20260903225914 87 70 1.0 1.0 0.00 0.00 0.00 75 1011.4
20260903225410 88 70 0.0 0.0 0.00 0.00 0.00 74 1011.0
20260903224906 89 70 1.0 1.0 0.00 0.00 0.00 72 1010.8
20260903224401 90 70 0.0 0.0 0.00 0.00 0.00 69 1011.2
20260903223857 91 71 0.0 0.0 0.00 0.00 0.00 68 1011.0
20260903223356 91 64 0.0 0.0 0.00 0.00 0.00 66 1011.0
20260903222851 91 62 0.0 0.0 0.00 0.00 0.00 65 1010.8
20260903222350 92 75 2.0 2.0 0.00 0.00 0.00 64 1010.9
20260903221845 92 78 2.0 2.0 0.00 0.00 0.00 63 1010.6
20260903221344 93 94 3.0 5.0 0.00 0.00 0.00 62 1010.7
20260903220842 93 86 2.0 2.0 0.00 0.00 0.00 62 1010.6
20260903220336 93 68 2.0 2.0 0.00 0.00 0.00 64 1010.7
20260903215835 93 69 1.0 2.0 0.00 0.00 0.00 63 1010.6
20260903215332 93 95 2.0 2.0 0.00 0.00 0.00 64 1010.6
20260903214829 93 114 0.0 1.0 0.00 0.00 0.00 63 1010.8
20260903214326 93 82 4.0 5.0 0.00 0.00 0.00 60 1010.7
20260903213820 93 77 5.0 6.0 0.00 0.00 0.00 60 1010.5
20260903213315 94 91 2.0 6.0 0.00 0.00 0.00 61 1010.7
20260903212812 93 72 3.0 3.0 0.00 0.00 0.00 60 1010.7
20260903212308 94 93 3.0 3.0 0.00 0.00 0.00 61 1010.7
20260903211807 94 107 5.0 7.0 0.00 0.00 0.00 60 1011.0
20260903211303 94 154 4.0 5.0 0.00 0.00 0.00 61 1010.9
20260903210759 94 17 4.0 6.0 0.00 0.00 0.00 58 1010.9
20260903210254 95 81 3.0 3.0 0.00 0.00 0.00 58 1011.2
20260903205754 95 98 5.0 6.0 0.00 0.00 0.00 58 1011.4
20260903205253 95 120 3.0 5.0 0.00 0.00 0.00 57 1011.5
20260903204749 96 78 5.0 6.0 0.00 0.00 0.00 58 1011.4
20260903204245 96 75 1.0 1.0 0.00 0.00 0.00 56 1011.5
20260903203740 96 65 3.0 3.0 0.00 0.00 0.00 55 1011.6
20260903203236 96 74 2.0 3.0 0.00 0.00 0.00 54 1011.5
20260903202729 96 75 1.0 2.0 0.00 0.00 0.00 57 1011.6
20260903202226 96 40 3.0 3.0 0.00 0.00 0.00 54 1011.6
20260903201725 95 71 1.0 2.0 0.00 0.00 0.00 56 1011.8
20260903201221 96 82 1.0 2.0 0.00 0.00 0.00 55 1011.9
20260903200719 95 71 4.0 5.0 0.00 0.00 0.00 54 1011.9
20260903200215 94 62 5.0 6.0 0.00 0.00 0.00 55 1012.2
20260903195710 94 97 3.0 5.0 0.00 0.00 0.00 55 1011.8
20260903195206 94 75 4.0 5.0 0.00 0.00 0.00 57 1011.9
20260903194706 94 77 5.0 6.0 0.00 0.00 0.00 56 1012.1
20260903194202 94 59 7.0 9.0 0.00 0.00 0.00 54 1012.2
20260903193657 94 95 3.0 3.0 0.00 0.00 0.00 55 1012.1
20260903193152 95 76 0.0 0.0 0.00 0.00 0.00 60 1012.2
20260903192648 94 69 2.0 3.0 0.00 0.00 0.00 59 1012.3
20260903192143 94 136 3.0 5.0 0.00 0.00 0.00 58 1012.4
20260903191639 94 78 1.0 1.0 0.00 0.00 0.00 58 1012.7
20260903191139 94 93 3.0 5.0 0.00 0.00 0.00 59 1012.6
20260903190639 93 90 2.0 3.0 0.00 0.00 0.00 60 1012.4
20260903190133 92 43 5.0 7.0 0.00 0.00 0.00 59 1012.7
20260903185628 91 65 5.0 7.0 0.00 0.00 0.00 61 1012.6
20260903185123 89 74 4.0 6.0 0.00 0.00 0.00 69 1012.9
20260903184620 90 70 1.0 2.0 0.00 0.00 0.00 74 1012.9
20260903184116 90 35 0.0 0.0 0.00 0.00 0.00 72 1012.8
20260903183614 92 34 0.0 1.0 0.00 0.00 0.00 73 1012.7
20260903183109 93 38 0.0 0.0 0.00 0.00 0.00 70 1012.7
20260903182608 94 60 0.0 1.0 0.00 0.00 0.00 61 1013.0
20260903182105 95 63 3.0 3.0 0.00 0.00 0.00 60 1012.8
20260903181603 95 106 0.0 1.0 0.00 0.00 0.00 62 1012.8
20260903181057 94 67 0.0 0.0 0.00 0.00 0.00 60 1012.9
20260903180553 94 60 0.0 0.0 0.00 0.00 0.00 59 1012.9
20260903180047 93 48 0.0 0.0 0.00 0.00 0.00 62 1012.9
20260903175546 93 49 0.0 0.0 0.00 0.00 0.00 62 1012.9
20260903175046 95 284 2.0 3.0 0.00 0.00 0.00 60 1013.1
20260903174540 98 311 2.0 3.0 0.00 0.00 0.00 58 1013.0
20260903174035 98 313 0.0 0.0 0.00 0.00 0.00 54 1013.0
20260903173530 98 61 0.0 0.0 0.00 0.00 0.00 52 1013.2
20260903173027 98 73 0.0 0.0 0.00 0.00 0.00 51 1013.1
20260903172521 96 71 2.0 2.0 0.00 0.00 0.00 54 1013.3
20260903172017 96 42 0.0 0.0 0.00 0.00 0.00 54 1013.2
20260903171511 96 53 1.0 1.0 0.00 0.00 0.00 55 1013.5
20260903171006 96 57 0.0 0.0 0.00 0.00 0.00 57 1013.5
20260903170500 96 72 2.0 2.0 0.00 0.00 0.00 56 1013.5
20260903170000 96 77 2.0 3.0 0.00 0.00 0.00 60 1013.7
20260903165453 95 63 1.0 1.0 0.00 0.00 0.00 58 1013.7
20260903164948 96 81 5.0 6.0 0.00 0.00 0.00 55 1013.5
20260903164438 95 22 0.0 0.0 0.00 0.00 0.00 58 1013.9
20260903163937 94 37 1.0 1.0 0.00 0.00 0.00 58 1013.6
20260903163433 95 357 1.0 2.0 0.00 0.00 0.00 55 1013.9
20260903162930 94 67 0.0 0.0 0.00 0.00 0.00 64 1013.8
20260903162426 94 358 2.0 2.0 0.00 0.00 0.00 60 1014.0
20260903161921 94 63 1.0 1.0 0.00 0.00 0.00 62 1014.0
20260903161416 93 26 1.0 2.0 0.00 0.00 0.00 63 1014.0
20260903160912 93 46 1.0 3.0 0.00 0.00 0.00 64 1013.9
20260903160411 93 353 4.0 5.0 0.00 0.00 0.00 63 1014.0
20260903155910 93 65 0.0 0.0 0.00 0.00 0.00 64 1014.2
20260903155405 92 22 2.0 2.0 0.00 0.00 0.00 66 1013.9
20260903154901 92 34 0.0 0.0 0.00 0.00 0.00 66 1014.0
20260903154357 92 66 0.0 0.0 0.00 0.00 0.00 68 1014.0
20260903153857 92 52 0.0 0.0 0.00 0.00 0.00 68 1014.1
20260903153352 92 66 1.0 1.0 0.00 0.00 0.00 66 1014.1
20260903152849 91 38 0.0 1.0 0.00 0.00 0.00 68 1014.0
20260903152344 91 38 0.0 1.0 0.00 0.00 0.00 68 1014.0
20260903151839 91 42 0.0 1.0 0.00 0.00 0.00 72 1014.3
20260903151335 91 59 0.0 0.0 0.00 0.00 0.00 74 1014.3
20260903150835 89 58 0.0 0.0 0.00 0.00 0.00 76 1014.2
20260903150329 89 328 3.0 3.0 0.00 0.00 0.00 75 1014.4
20260903145824 88 55 2.0 2.0 0.00 0.00 0.00 75 1014.2
20260903145319 87 40 1.0 1.0 0.00 0.00 0.00 79 1014.2
20260903144819 87 92 0.0 1.0 0.00 0.00 0.00 81 1014.1
20260903144314 87 30 1.0 1.0 0.00 0.00 0.00 77 1014.1
20260903143809 88 45 1.0 1.0 0.00 0.00 0.00 77 1014.4
20260903143306 88 49 0.0 0.0 0.00 0.00 0.00 84 1014.3
20260903142802 87 67 0.0 0.0 0.00 0.00 0.00 84 1014.5
20260903142257 87 85 2.0 2.0 0.00 0.00 0.00 80 1014.3
20260903141753 86 59 0.0 0.0 0.00 0.00 0.00 88 1014.2
20260903141249 84 62 2.0 2.0 0.00 0.00 0.00 85 1014.4
20260903140749 84 31 2.0 2.0 0.00 0.00 0.00 85 1014.2
20260903140244 83 67 2.0 3.0 0.00 0.00 0.00 87 1014.2
20260903135740 83 66 2.0 2.0 0.00 0.00 0.00 87 1014.3
20260903135235 82 50 1.0 1.0 0.00 0.00 0.00 89 1014.3
20260903134733 82 52 1.0 2.0 0.00 0.00 0.00 90 1014.2
20260903134230 81 32 3.0 3.0 0.00 0.00 0.00 92 1014.3
20260903133727 80 47 1.0 1.0 0.00 0.00 0.00 94 1014.2
20260903133224 80 63 2.0 2.0 0.00 0.00 0.00 95 1014.2
20260903132724 79 42 1.0 1.0 0.00 0.00 0.00 98 1014.3
20260903132224 78 60 0.0 0.0 0.00 0.00 0.00 99 1014.4
20260903131718 77 61 0.0 0.0 0.00 0.00 0.00 99 1014.3
20260903131213 77 62 0.0 0.0 0.00 0.00 0.00 99 1014.5
20260903130708 76 53 0.0 0.0 0.00 0.00 0.00 99 1014.5
20260903130202 75 54 0.0 0.0 0.00 0.00 0.00 99 1014.5
20260903125701 74 53 0.0 0.0 0.00 0.00 0.00 99 1014.5
20260903125156 74 53 0.0 0.0 0.00 0.00 0.00 99 1014.6
20260903124655 73 58 0.0 0.0 0.00 0.00 0.00 99 1014.9
20260903124156 73 59 0.0 0.0 0.00 0.00 0.00 99 1014.9
20260903123655 73 57 0.0 0.0 0.00 0.00 0.00 99 1014.6
20260903123154 72 58 0.0 0.0 0.00 0.00 0.00 99 1014.8
20260903122654 72 59 0.0 0.0 0.00 0.00 0.00 99 1014.6
20260903122148 71 62 0.0 0.0 0.00 0.00 0.00 99 1014.8
20260903121647 71 62 0.0 0.0 0.00 0.00 0.00 99 1014.6
20260903121144 71 62 0.0 0.0 0.00 0.00 0.00 99 1014.7
20260903120642 71 62 0.0 0.0 0.00 0.00 0.00 99 1014.8
20260903120137 70 62 0.0 0.0 0.00 0.00 0.00 99 1014.7
20260903115635 70 62 0.0 0.0 0.00 0.00 0.00 99 1014.8
20260903115131 70 62 0.0 0.0 0.00 0.00 0.00 99 1014.7
20260903114626 70 62 0.0 0.0 0.00 0.00 0.00 99 1014.7
20260903114121 70 62 0.0 0.0 0.00 0.00 0.00 99 1014.5
20260903113616 70 61 0.0 0.0 0.00 0.00 0.00 99 1014.6
20260903113113 70 62 0.0 0.0 0.00 0.00 0.00 99 1014.6
20260903112609 70 61 0.0 0.0 0.00 0.00 0.00 99 1014.4
20260903112108 70 61 0.0 0.0 0.00 0.00 0.00 99 1014.2
20260903111607 70 62 0.0 0.0 0.00 0.00 0.00 99 1014.4
20260903111103 70 62 0.0 0.0 0.00 0.00 0.00 99 1014.2
20260903110559 70 62 0.0 0.0 0.00 0.00 0.00 99 1014.2
20260903110054 70 62 0.0 0.0 0.00 0.00 0.00 99 1014.1
20260903105549 70 62 0.0 0.0 0.00 0.00 0.00 99 1014.0
20260903105044 70 62 0.0 0.0 0.00 0.00 0.00 99 1014.1
20260903104543 70 62 0.0 0.0 0.00 0.00 0.00 99 1013.9
20260903104039 70 62 0.0 0.0 0.00 0.00 0.00 99 1013.9
20260903103535 70 65 0.0 0.0 0.00 0.00 0.00 99 1013.8
20260903103031 70 63 0.0 0.0 0.00 0.00 0.00 99 1013.9
20260903102526 70 61 0.0 0.0 0.00 0.00 0.00 99 1013.6
20260903102025 70 61 0.0 0.0 0.00 0.00 0.00 99 1013.6
20260903101520 70 61 0.0 0.0 0.00 0.00 0.00 99 1013.6
20260903101016 70 61 0.0 0.0 0.00 0.00 0.00 99 1013.8
20260903100511 71 61 0.0 0.0 0.00 0.00 0.00 99 1013.9
20260903100009 70 60 0.0 0.0 0.00 0.00 0.00 99 1013.8
20260903095502 70 59 0.0 0.0 0.00 0.00 0.00 99 1013.6
20260903094957 70 59 0.0 0.0 0.00 0.00 0.00 99 1013.7
20260903094456 70 59 0.0 0.0 0.00 0.00 0.00 99 1013.6
20260903093953 71 61 0.0 0.0 0.00 0.00 0.00 99 1013.7
20260903093448 71 61 0.0 0.0 0.00 0.00 0.00 99 1013.6
20260903092944 71 61 0.0 0.0 0.00 0.00 0.00 99 1013.5
20260903092443 71 64 0.0 0.0 0.00 0.00 0.00 99 1013.7
20260903091942 71 62 0.0 0.0 0.00 0.00 0.00 99 1013.8
20260903091440 71 61 0.0 0.0 0.00 0.00 0.00 99 1013.8
20260903090936 71 61 0.0 0.0 0.00 0.00 0.00 99 1013.7
20260903090432 71 61 0.0 0.0 0.00 0.00 0.00 99 1013.8
20260903085930 71 61 0.0 0.0 0.00 0.00 0.00 99 1013.8
20260903085428 71 62 0.0 0.0 0.00 0.00 0.00 99 1013.8
20260903084928 71 61 0.0 0.0 0.00 0.00 0.00 99 1013.6
20260903084427 71 62 0.0 0.0 0.00 0.00 0.00 99 1013.6
20260903083922 71 57 0.0 0.0 0.00 0.00 0.00 99 1013.7
20260903083419 71 57 0.0 0.0 0.00 0.00 0.00 99 1013.4
20260903082917 71 53 0.0 0.0 0.00 0.00 0.00 99 1013.6
20260903082412 71 62 0.0 0.0 0.00 0.00 0.00 99 1013.6
20260903081908 72 72 1.0 2.0 0.00 0.00 0.00 99 1013.6
20260903081403 71 70 1.0 1.0 0.00 0.00 0.00 99 1013.6
20260903080859 71 65 1.0 1.0 0.00 0.00 0.00 99 1013.5
20260903080355 72 72 1.0 2.0 0.00 0.00 0.00 99 1013.5
20260903075849 71 70 0.0 0.0 0.00 0.00 0.00 99 1013.9
20260903075345 71 65 0.0 0.0 0.00 0.00 0.00 99 1013.5
20260903074844 72 63 0.0 0.0 0.00 0.00 0.00 99 1013.6
20260903074339 71 63 0.0 0.0 0.00 0.00 0.00 99 1013.6
20260903073835 71 63 0.0 0.0 0.00 0.00 0.00 99 1013.5
20260903073330 72 63 0.0 0.0 0.00 0.00 0.00 99 1013.7
20260903072825 72 63 0.0 0.0 0.00 0.00 0.00 99 1013.4
20260903072321 72 63 0.0 0.0 0.00 0.00 0.00 99 1013.5
20260903071818 72 63 0.0 0.0 0.00 0.00 0.00 99 1013.5
20260903071314 72 63 0.0 0.0 0.00 0.00 0.00 99 1013.3
20260903070808 72 63 0.0 0.0 0.00 0.00 0.00 99 1013.6
20260903070304 72 66 0.0 0.0 0.00 0.00 0.00 99 1013.4
20260903065759 72 65 0.0 0.0 0.00 0.00 0.00 99 1013.5
20260903065258 72 63 0.0 0.0 0.00 0.00 0.00 99 1013.6
20260903064757 72 61 0.0 0.0 0.00 0.00 0.00 99 1013.6
20260903064253 72 59 0.0 0.0 0.00 0.00 0.00 99 1013.7
20260903063749 72 59 0.0 0.0 0.00 0.00 0.00 99 1013.6
20260903063243 72 59 0.0 0.0 0.00 0.00 0.00 99 1013.4
20260903062739 72 59 0.0 0.0 0.00 0.00 0.00 99 1013.6
20260903062232 73 59 0.0 0.0 0.00 0.00 0.00 99 1013.5
20260903061729 73 60 0.0 0.0 0.00 0.00 0.00 99 1013.5
20260903061228 73 63 0.0 0.0 0.00 0.00 0.00 99 1013.6
20260903060724 73 63 0.0 0.0 0.00 0.00 0.00 99 1013.5
20260903060223 73 67 0.0 0.0 0.00 0.00 0.00 99 1013.3
20260903055720 73 59 0.0 0.0 0.00 0.00 0.00 99 1013.5
20260903055219 73 58 0.0 0.0 0.00 0.00 0.00 99 1013.4
20260903054714 73 57 0.0 0.0 0.00 0.00 0.00 99 1013.2
20260903054210 73 56 0.0 0.0 0.00 0.00 0.00 99 1013.5
20260903053707 73 56 0.0 0.0 0.00 0.00 0.00 99 1013.5
20260903053201 73 56 0.0 0.0 0.00 0.00 0.00 99 1013.4
20260903052657 73 55 0.0 0.0 0.00 0.00 0.00 99 1013.5
20260903052152 73 55 0.0 0.0 0.00 0.00 0.00 99 1013.5
20260903051647 73 68 0.0 0.0 0.00 0.00 0.00 99 1013.6
20260903051143 73 66 0.0 0.0 0.00 0.00 0.00 99 1013.5
20260903050638 74 63 0.0 0.0 0.00 0.00 0.00 99 1013.3
20260903050132 73 60 0.0 0.0 0.00 0.00 0.00 99 1013.4
20260903045631 74 65 0.0 0.0 0.00 0.00 0.00 99 1013.1
20260903045128 74 65 0.0 1.0 0.00 0.00 0.00 99 1013.2
20260903044624 74 64 0.0 0.0 0.00 0.00 0.00 99 1013.2
20260903044119 74 62 0.0 0.0 0.00 0.00 0.00 99 1013.3
20260903043616 74 61 0.0 0.0 0.00 0.00 0.00 99 1013.3
20260903043115 74 66 0.0 0.0 0.00 0.00 0.00 99 1013.1
20260903042609 74 70 0.0 0.0 0.00 0.00 0.00 99 1013.3
20260903042105 74 67 0.0 0.0 0.00 0.00 0.00 99 1013.2
20260903041601 74 67 0.0 0.0 0.00 0.00 0.00 99 1013.2
20260903041102 74 67 0.0 0.0 0.00 0.00 0.00 99 1013.4
20260903040600 74 67 0.0 0.0 0.00 0.00 0.00 99 1013.4
20260903040057 74 67 0.0 0.0 0.00 0.00 0.00 99 1013.3
20260903035553 74 67 0.0 0.0 0.00 0.00 0.00 99 1013.5
20260903035048 75 67 0.0 0.0 0.00 0.00 0.00 99 1013.3
20260903034543 75 67 0.0 0.0 0.00 0.00 0.00 99 1013.4
20260903034038 75 67 0.0 0.0 0.00 0.00 0.00 99 1013.4
20260903033533 75 67 0.0 0.0 0.00 0.00 0.00 99 1013.3
20260903033028 75 67 0.0 0.0 0.00 0.00 0.00 99 1013.5
20260903032523 75 67 0.0 0.0 0.00 0.00 0.00 99 1013.4
20260903032018 75 66 0.0 0.0 0.00 0.00 0.00 99 1013.6
20260903031513 75 66 0.0 0.0 0.00 0.00 0.00 99 1013.4
20260903031008 75 67 0.0 1.0 0.00 0.00 0.00 99 1013.6